TimeEST,TemperatureF,Dew PointF,Humidity,Sea Level PressureIn,VisibilityMPH,Wind Direction,Wind SpeedMPH,Gust SpeedMPH,PrecipitationIn,Events,Conditions,WindDirDegrees,DateUTC
12:53 AM,21.9,9.0,58,30.16,10.0,Calm,Calm,-,N/A,,Partly Cloudy,0,2013-01-24 05:53:00
1:53 AM,23.0,10.0,58,30.22,10.0,NNW,5.8,-,N/A,,Overcast,330,2013-01-24 06:53:00
2:53 AM,21.9,7.0,53,30.28,10.0,NNW,13.8,25.3,N/A,,Partly Cloudy,340,2013-01-24 07:53:00
3:53 AM,19.9,7.0,57,30.33,10.0,NNW,11.5,19.6,N/A,,Clear,330,2013-01-24 08:53:00
4:53 AM,19.0,6.1,57,30.38,10.0,North,12.7,19.6,N/A,,Clear,350,2013-01-24 09:53:00
5:53 AM,18.0,3.9,54,30.41,10.0,NNW,13.8,-,N/A,,Clear,340,2013-01-24 10:53:00
6:53 AM,17.1,3.9,56,30.46,10.0,North,11.5,-,N/A,,Clear,350,2013-01-24 11:53:00
7:53 AM,16.0,3.9,59,30.51,10.0,NNE,9.2,-,N/A,,Clear,20,2013-01-24 12:53:00
8:53 AM,16.0,5.0,62,30.54,10.0,North,10.4,-,N/A,,Clear,10,2013-01-24 13:53:00
9:53 AM,19.0,5.0,54,30.59,10.0,NNE,5.8,-,N/A,,Clear,30,2013-01-24 14:53:00
10:53 AM,21.0,1.9,44,30.62,10.0,NNE,9.2,-,N/A,,Clear,20,2013-01-24 15:53:00
11:53 AM,21.9,1.0,40,30.64,10.0,NE,9.2,-,N/A,,Clear,40,2013-01-24 16:53:00
12:53 PM,23.0,-0.0,37,30.61,10.0,ENE,4.6,-,N/A,,Clear,60,2013-01-24 17:53:00
1:53 PM,24.1,-0.9,34,30.58,10.0,NE,3.5,-,N/A,,Clear,40,2013-01-24 18:53:00
2:53 PM,24.1,-2.0,32,30.56,10.0,NE,10.4,-,N/A,,Clear,50,2013-01-24 19:53:00
3:53 PM,25.0,-2.0,31,30.57,10.0,NE,5.8,-,N/A,,Clear,50,2013-01-24 20:53:00
4:53 PM,24.1,-2.0,32,30.57,10.0,NE,3.5,-,N/A,,Clear,40,2013-01-24 21:53:00
5:53 PM,21.0,1.0,42,30.57,10.0,NE,5.8,-,N/A,,Clear,40,2013-01-24 22:53:00
6:53 PM,21.0,-0.0,40,30.58,10.0,ENE,6.9,-,N/A,,Clear,70,2013-01-24 23:53:00
7:53 PM,19.9,3.0,48,30.57,10.0,East,5.8,-,N/A,,Clear,80,2013-01-25 00:53:00
8:53 PM,19.9,6.1,55,30.55,10.0,East,5.8,-,N/A,,Clear,80,2013-01-25 01:53:00
9:53 PM,19.9,7.0,57,30.54,10.0,ENE,4.6,-,N/A,,Clear,70,2013-01-25 02:53:00
10:53 PM,19.9,6.1,55,30.52,10.0,ESE,4.6,-,N/A,,Clear,110,2013-01-25 03:53:00
11:53 PM,21.0,6.1,53,30.51,10.0,East,3.5,-,N/A,,Clear,100,2013-01-25 04:53:00